Weather History for Pittsfield, MA

Change the Weather History Date:

Sunday, March 16, 2014

  Actual Average Record
Temperature  
Mean Temperature 19 °F 32 °F  
Max Temperature 26 °F 42 °F 66 °F (1945)
Min Temperature 12 °F 21 °F 5 °F (1932)
Degree Days  
Heating Degree Days 46 33  
Month to date heating degree days 688 571  
Since 1 July heating degree days 6240 5951  
Cooling Degree Days 0 0  
Month to date cooling degree days 0 0  
Year to date cooling degree days 0 0  
Moisture  
Dew Point 6 °F    
Average Humidity 53    
Maximum Humidity 67    
Minimum Humidity 39    
Precipitation  
Precipitation T in 0.12 in 0.92 in (2007)
Month to date precipitation 0.47 1.39  
Year to date precipitation 6.85 6.99  
Sea Level Pressure  
Sea Level Pressure 30.10 in    
Wind  
Wind Speed 16 mph (WNW)    
Max Wind Speed 28 mph    
Max Gust Speed 36 mph    
Visibility 9 miles    
Events Snow    
T = Trace of Precipitation, MM = Missing Value Source: NWS Daily Summary

Daily Weather History Graph

Daily Weather History Graph

Search for Another Location

Airport:

Trip Planner

Search our weather history database for the weather conditions in past years. The results will help you decide how hot, cold, wet, or windy it might be!

Date:

Astronomy

Mar. 16, 2014 Rise Set
Actual Time 7:03 AM EDT 7:00 PM EDT
Civil Twilight 6:35 AM EDT 7:28 PM EDT
Nautical Twilight 6:02 AM EDT 8:01 PM EDT
Astronomical Twilight 5:29 AM EDT 8:34 PM EDT
Moon 7:16 PM EDT (3/16) 6:45 AM EDT (3/16)
Length of Visible Light 12h 53m
Length of Day
11h 57m
Full, 100% of the Moon is Illuminated
Mar 16
Full
Mar 16
Full
Mar 23
Last Quarter
Mar 30
New
Apr 7
First Quarter

Hourly Weather History & Observations

Time (EDT) Temp. Windchill Dew Point Humidity Pressure Visibility Wind Dir Wind Speed Gust Speed Precip Events Conditions
12:54 AM 26.1 °F 11.6 °F 12.9 °F 58% 29.95 in 10.0 mi WNW 21.9 mph 31.1 mph N/A   Partly Cloudy
1:54 AM 24.1 °F 12.0 °F 14.0 °F 65% 29.96 in 10.0 mi WNW 13.8 mph 29.9 mph 0.00 in   Mostly Cloudy
2:01 AM 24.1 °F 11.0 °F 12.9 °F 62% 29.94 in 10.0 mi WNW 16.1 mph 27.6 mph N/A   Scattered Clouds
2:54 AM 21.9 °F 8.2 °F 10.9 °F 63% 29.99 in 10.0 mi WNW 16.1 mph 29.9 mph N/A   Clear
3:49 AM 21.2 °F 6.4 °F 10.4 °F 63% 29.97 in 10.0 mi WNW 18.4 mph 28.8 mph N/A   Mostly Cloudy
3:54 AM 21.0 °F 5.7 °F 10.0 °F 63% 30.00 in 10.0 mi WNW 19.6 mph 25.3 mph N/A   Scattered Clouds
4:54 AM 19.9 °F 5.2 °F 8.1 °F 60% 30.02 in 10.0 mi WNW 17.3 mph 34.5 mph N/A   Clear
5:54 AM 19.0 °F 2.4 °F 7.0 °F 59% 30.04 in 10.0 mi WNW 21.9 mph 29.9 mph N/A   Clear
6:54 AM 18.0 °F 1.7 °F 7.0 °F 62% 30.06 in 10.0 mi West 19.6 mph 27.6 mph N/A   Clear
7:54 AM 18.0 °F 1.3 °F 7.0 °F 62% 30.09 in 10.0 mi WNW 20.7 mph 27.6 mph N/A   Overcast
8:25 AM 18.0 °F 3.1 °F 8.1 °F 65% 30.06 in 9.0 mi WNW 16.1 mph 27.6 mph N/A   Overcast
8:54 AM 18.0 °F 2.6 °F 9.0 °F 68% 30.13 in 5.0 mi WNW 17.3 mph 27.6 mph N/A   Haze
9:17 AM 18.0 °F 3.6 °F 9.0 °F 68% 30.09 in 1.8 mi WNW 15.0 mph 32.2 mph 0.00 in Snow Light Snow
9:27 AM 18.0 °F 4.2 °F 10.9 °F 74% 30.10 in 0.5 mi WNW 13.8 mph 23.0 mph 0.00 in Snow Snow
9:35 AM 18.0 °F 0.2 °F 9.0 °F 68% 30.10 in 2.0 mi WNW 24.2 mph 31.1 mph 0.00 in Snow Light Snow
9:44 AM 19.0 °F 4.0 °F 7.0 °F 59% 30.10 in 9.0 mi WNW 17.3 mph 31.1 mph 0.00 in   Mostly Cloudy
9:54 AM 19.0 °F 2.7 °F 7.0 °F 59% 30.15 in 10.0 mi NW 20.7 mph 32.2 mph 0.00 in   Mostly Cloudy
10:54 AM 19.0 °F 3.6 °F 5.0 °F 54% 30.15 in 10.0 mi West 18.4 mph 26.5 mph N/A   Partly Cloudy
11:54 AM 19.9 °F 3.5 °F 3.9 °F 50% 30.16 in 10.0 mi WNW 21.9 mph 29.9 mph N/A   Clear
12:54 PM 19.9 °F 3.9 °F 1.9 °F 46% 30.16 in 10.0 mi WNW 20.7 mph 33.4 mph N/A   Clear
1:54 PM 21.0 °F 6.6 °F 1.0 °F 42% 30.16 in 10.0 mi NW 17.3 mph 26.5 mph N/A   Clear
2:54 PM 21.9 °F 8.2 °F 3.9 °F 46% 30.15 in 10.0 mi WNW 16.1 mph 28.8 mph N/A   Clear
3:54 PM 21.9 °F 8.2 °F -0.0 °F 38% 30.17 in 10.0 mi West 16.1 mph 23.0 mph N/A   Clear
4:54 PM 19.9 °F 5.2 °F -0.0 °F 42% 30.16 in 10.0 mi NW 17.3 mph 27.6 mph N/A   Clear
5:54 PM 19.9 °F 6.7 °F 1.9 °F 46% 30.16 in 10.0 mi WNW 13.8 mph 21.9 mph N/A   Clear
6:54 PM 18.0 °F 5.4 °F 1.9 °F 50% 30.17 in 10.0 mi West 11.5 mph 19.6 mph N/A   Clear
7:54 PM 17.1 °F 10.0 °F 1.9 °F 52% 30.20 in 10.0 mi West 4.6 mph - N/A   Clear
8:54 PM 16.0 °F 5.3 °F 1.0 °F 52% 30.22 in 10.0 mi West 8.1 mph - N/A   Clear
9:54 PM 15.1 °F -0.1 °F 1.0 °F 54% 30.21 in 10.0 mi WNW 15.0 mph - N/A   Clear
10:54 PM 14.0 °F -0.2 °F 1.0 °F 56% 30.21 in 10.0 mi NW 12.7 mph - N/A   Clear
11:54 PM 12.9 °F 2.6 °F 1.0 °F 59% 30.19 in 10.0 mi WNW 6.9 mph - N/A   Clear